Regional Weather Roundup
Issued by NWS

Home | Current Version | Previous Version | Graphics & Text | Print | Product List | Glossary On
Versions: 1 2 3 4 5 6 7 8 9 10 11 12 13 14 15 16 17 18 19 20 21 22 23 24 25 26 27 28 29 30 31 32 33 34 35 36 37 38 39 40 41 42 43 44 45 46 47 48 49 50
000
ASUS45 KBOU 281807
RWRCO

WEATHER ROUNDUP FOR COLORADO
NATIONAL WEATHER SERVICE DENVER/BOULDER CO
1200 PM MDT THU MAY 28 2015

NOTE: "FAIR" INDICATES FEW OR NO CLOUDS BELOW 12000 FEET WITH NO
SIGNIFICANT WEATHER AND/OR OBSTRUCTIONS TO VISIBILITY.

COZ001>005-013-030-031-281900-
...NORTHWEST COLORADO...

CITY           SKY/WX    TMP DP  RH WIND       PRES   REMARKS
CRAIG          MOSUNNY   63  41  44 W9        30.15F
HAYDEN         MOSUNNY   59  37  44 W9G18     30.16F
MEEKER         MOSUNNY   62  43  49 VRB3      30.16F
MOUNT WERNER   NOT AVBL
STEAMBOAT SPGS MOSUNNY   58  40  52 S10G16    30.18S
WALDEN         PTSUNNY   55  32  41 SW17G26   30.20F
$$

COZ006>008-011-281900-
...WEST CENTRAL VALLEYS...

CITY           SKY/WX    TMP DP  RH WIND       PRES   REMARKS
GRAND JUNCTION MOSUNNY   68  46  45 CALM      30.11F
MONTROSE       SUNNY     67  42  40 N9        30.16S
EAGLE          MOSUNNY   63  37  39 SW8       30.17F
RIFLE          MOSUNNY   63  45  51 CALM      30.13F
DELTA          SUNNY     70  42  36 CALM      30.13S
NUCLA          NOT AVBL
$$

COZ017>023-064>068-281900-
...SOUTHWEST COLORADO...

CITY           SKY/WX    TMP DP  RH WIND       PRES   REMARKS
DURANGO        MOSUNNY   69  35  28 SW6       30.16F
CORTEZ         SUNNY     73  34  23 W9        30.14F
PAGOSA SPRINGS MOSUNNY   67  23  19 W14G36    30.21F
TELLURIDE      PTSUNNY   56  29  35 NW8       30.31S
WOLF CREEK PAS NOT AVBL
$$

COZ009-010-012-014-032>034-037-058>063-281900-
...CENTRAL COLORADO...

CITY           SKY/WX    TMP DP  RH WIND       PRES   REMARKS
ASPEN          MOSUNNY   58  37  45 N15       30.20S
BUENA VISTA    PTSUNNY   62  30  29 SE7G21    30.18F
COPPER MTN     PTSUNNY   41  27  56 SW15      30.39S
BERTHOUD PASS  CLOUDY    32  27  80 W24       30.40S WCI  19
COTTONWOOD PAS MOSUNNY   59  27  29 SW3       30.28F THUNDER
GUNNISON       MOSUNNY   57  37  47 SW9       30.23F
KREMMLING      LGT RAIN  54  37  54 CALM      30.19F
LEADVILLE      PTSUNNY   47  32  56 VRB3      30.28F
MONARCH PASS   PTSUNNY   37  27  65 W40G51    30.48F THUNDER
SALIDA         MOSUNNY   69  26  19 W26G35    30.22F
SUNLIGHT       PTSUNNY   46  36  66 W6        30.38F
WILKERSON PASS PTSUNNY   52  27  37 SW12G21   30.36F
$$

COZ069>075-281900-
...SAN LUIS VALLEY/SANGRE DE CRISTO MOUNTAINS...

CITY           SKY/WX    TMP DP  RH WIND       PRES   REMARKS
ALAMOSA        SUNNY     68  31  25 VRB6      30.18F
LA VETA PASS   MOSUNNY  N/A N/A N/A MISG      30.32F
SAGUACHE       MOSUNNY   61  34  36 S7        30.20F THUNDER
$$

COZ035-036-038>040-281900-
...NORTHERN COLORADO FRONT RANGE...

CITY           SKY/WX    TMP DP  RH WIND       PRES   REMARKS
DENVER INTL AP PTSUNNY   72  42  34 CALM      30.04F
DMNS CITY PARK   N/A     69  41  36 E7G13     30.03F
AURORA         PTSUNNY   71  44  38 VRB3      30.06F
FRONT RANGE AP PTSUNNY   72  46  40 E3G15     30.06F
ERIE MUNI ARPT PTSUNNY   70  45  40 NE5       30.03S
BOULDER MUN AP MOSUNNY   70  43  37 E5        30.03S
CENTENNIAL     PTSUNNY   68  47  46 NE9       30.06F
BROOMFIELD     PTSUNNY   70  45  40 NE7       30.06S
FORT COLLINS   PTSUNNY   70  48  46 S8        30.03F
LONGMONT       PTSUNNY   73  40  29 W14G22    30.03F
$$

COZ041-046-047-076>085-087-088-281900-
...PIKES PEAK/PALMER DIVIDE AND SOUTHERN FOOTHILLS...

CITY           SKY/WX    TMP DP  RH WIND       PRES   REMARKS
COLO. SPRINGS  PTSUNNY   70  42  36 S10       30.08F
A. F. ACADEMY  MOSUNNY   71  34  25 S9        30.07F
ELLICOTT       MOSUNNY  N/A N/A N/A SW9       30.07F
FALCON         MOSUNNY   71  35  26 S8        30.12F
FORT CARSON    MOSUNNY   73  38  28 SW9G23    30.04F
LIMON          SUNNY     72  52  49 VRB5      30.04F
MONUMENT HILL  PTSUNNY   64  32  29 MISG      30.12F
TRINIDAD       PTSUNNY   72  48  42 E5        30.05F
$$

COZ042>045-048>051-090-091-281900-
...NORTHEAST COLORADO...

CITY           SKY/WX    TMP DP  RH WIND       PRES   REMARKS
GREELEY ARPT   MOSUNNY   73  48  40 NE3       30.03S
AKRON          SUNNY     72  53  51 E8        30.01F
BURLINGTON     MOSUNNY   74  56  53 SE9       30.00F
WRAY           PTSUNNY   73  56  56 N6        29.99S
STERLING       SUNNY     72  57  60 E6        29.98F
HOLYOKE        PTSUNNY   73  59  60 NE8       29.99F
FORT MORGAN    SUNNY     73  54  52 E7        30.02F
$$

COZ086-089-092>099-281900-
...SOUTHEAST COLORADO...

CITY           SKY/WX    TMP DP  RH WIND       PRES   REMARKS
PUEBLO         PTSUNNY   73  48  41 CALM      29.99F
LA JUNTA       MOSUNNY   72  54  53 SE5       29.99F
LAMAR          SUNNY     78  57  48 NW9       29.95F
SPRINGFIELD      N/A     71  60  68 S26G33    30.03R
$$


USA.gov is the U.S. government's official web portal to all federal, state and local government web resources and services.